Flag for Mexico Weather past 2 weeks in Ojinaga, Chihuahua, Mexico

Now
54 °F

Sunny.


Feels Like: 49 °F
Forecast: 32 / 67 °F
Wind: 18 mph from West

Location: Marfa Municipal Airport

Current Time: Dec 21, 2014 at 10:26:35 AM

Latest Report: Dec 21, 2014 at 9:55 AM


Visibility: 10 mi

Pressure: 30.08 "Hg

Humidity: 35%

Dew point: 27 °F

Location of OjinagaLocation

Historic Weather in Ojinaga — Graph

°F

Ojinaga temperature yesterday

Maximum temperature yesterday: 61 °F (at 1:35 PM)
Minimum temperature yesterday: 19 °F (at 6:15 AM)
Average temperature yesterday: 38 °F

Past Weeks' High & Low Weather Summary

 TemperatureHumidityPressure
High70 °F (Dec 11, 1:15 PM)100% (Dec 9, 1:55 AM)30.46 "Hg (Dec 9, 1:55 AM)
Low19 °F (Dec 20, 6:15 AM)20% (Dec 15, 2:35 PM)29.97 "Hg (Dec 13, 11:55 PM)
Average46 °F68%30.19 "Hg
* Reported Dec 6 9:15 AM — Dec 21 9:15 AM, Ojinaga, Weather by CustomWeather, © 2014

Note: Actual official high and low records may vary slightly from our data, if they occured in-between our weather recording intervals... More about our weather records

Advertising

Ojinaga weather history for previous 24 hours

 ConditionsComfort  
Time TempWeatherWind HumidityBarometerVisibility
9:15 AM
Dec 21
50 °FSunny.10 mph40%30.10 "Hg10 mi
8:55 AM48 °FSunny.5 mph46%30.10 "Hg10 mi
8:35 AM41 °FSunny.5 mph61%30.10 "Hg10 mi
8:15 AM37 °FSunny.6 mph65%30.09 "Hg10 mi
7:55 AM39 °FSunny.No wind65%30.08 "Hg10 mi
7:35 AM30 °FSunny.8 mph75%30.08 "Hg10 mi
7:15 AM28 °FSunny.9 mph80%30.08 "Hg10 mi
6:55 AM27 °FSunny.3 mph80%30.08 "Hg10 mi
6:35 AM28 °FClear.5 mph86%30.07 "Hg10 mi
6:15 AM27 °FClear.5 mph86%30.07 "Hg10 mi
5:55 AM28 °FClear.3 mph86%30.07 "Hg10 mi
5:35 AM25 °FClear.5 mph93%30.07 "Hg10 mi
5:15 AM25 °FClear.5 mph86%30.07 "Hg10 mi
4:55 AM25 °FClear.3 mph93%30.07 "Hg10 mi
4:35 AM23 °FClear.No wind93%30.07 "Hg10 mi
3:55 AM25 °FClear.5 mph80%30.06 "Hg10 mi
3:35 AM25 °FClear.5 mph80%30.07 "Hg10 mi
3:15 AM23 °FClear.No wind80%30.07 "Hg10 mi
2:55 AM27 °FClear.No wind74%30.07 "Hg10 mi
2:35 AM25 °FClear.5 mph80%30.08 "Hg10 mi
2:15 AM25 °FClear.No wind80%30.08 "Hg10 mi
1:55 AM25 °FClear.3 mph86%30.08 "Hg10 mi
1:35 AM25 °FClear.5 mph80%30.08 "Hg10 mi
1:15 AM27 °FClear.7 mph80%30.10 "Hg10 mi
12:55 AM27 °FClear.6 mph80%30.10 "Hg10 mi
12:35 AM28 °FClear.3 mph74%30.10 "Hg10 mi
12:15 AM28 °FClear.5 mph80%30.11 "Hg10 mi
11:55 PM
Dec 20
27 °FClear.7 mph69%30.11 "Hg10 mi
11:35 PM30 °FClear.No wind69%30.12 "Hg10 mi
11:15 PM34 °FClear.No wind65%30.13 "Hg10 mi
10:55 PM36 °FClear.No wind70%30.13 "Hg10 mi
10:35 PM34 °FClear.No wind70%30.13 "Hg10 mi
10:15 PM32 °FClear.5 mph75%30.13 "Hg10 mi
9:55 PM32 °FClear.3 mph69%30.12 "Hg10 mi
9:35 PM34 °FClear.No wind70%30.12 "Hg10 mi
9:15 PM36 °FClear.5 mph65%30.11 "Hg10 mi
8:55 PM34 °FClear.5 mph60%30.11 "Hg10 mi
8:35 PM34 °FClear.No wind60%30.11 "Hg10 mi
7:55 PM34 °FClear.3 mph60%30.11 "Hg10 mi
7:35 PM36 °FClear.No wind60%30.11 "Hg10 mi
7:15 PM37 °FClear.No wind60%30.11 "Hg10 mi
6:55 PM37 °FClear.3 mph60%30.11 "Hg10 mi
6:35 PM37 °FClear.3 mph60%30.11 "Hg10 mi
6:15 PM39 °FClear.5 mph56%30.10 "Hg10 mi
5:55 PM43 °FClear.6 mph49%30.10 "Hg10 mi
5:35 PM46 °FClear.6 mph46%30.09 "Hg10 mi
5:15 PM46 °FClear.8 mph46%30.09 "Hg10 mi
4:55 PM52 °FSunny.9 mph38%30.08 "Hg10 mi
4:35 PM54 °FSunny.10 mph35%30.08 "Hg10 mi
4:15 PM55 °FSunny.12 mph36%30.09 "Hg10 mi
3:55 PM55 °FSunny.13 mph36%30.09 "Hg10 mi
3:35 PM57 °FSunny.16 mph33%30.08 "Hg10 mi
3:15 PM57 °FSunny.15 mph33%30.07 "Hg10 mi
2:55 PM59 °FSunny.14 mph29%30.07 "Hg10 mi
2:35 PM59 °FSunny.17 mph29%30.07 "Hg10 mi
1:55 PM61 °FSunny.15 mph29%30.08 "Hg10 mi
1:35 PM61 °FPassing clouds.17 mph29%30.08 "Hg10 mi
1:15 PM59 °FPassing clouds.14 mph34%30.09 "Hg10 mi
12:55 PM57 °FSunny.13 mph36%30.10 "Hg10 mi
12:35 PM57 °FSunny.10 mph36%30.11 "Hg10 mi
12:15 PM57 °FSunny.10 mph36%30.12 "Hg10 mi
11:55 AM55 °FSunny.7 mph44%30.13 "Hg10 mi
11:35 AM55 °FSunny.9 mph41%30.15 "Hg10 mi
11:15 AM54 °FSunny.8 mph47%30.16 "Hg10 mi
10:55 AM54 °FSunny.3 mph44%30.17 "Hg10 mi
10:35 AM52 °FSunny.9 mph47%30.18 "Hg10 mi
10:15 AM50 °FSunny.7 mph50%30.18 "Hg10 mi
Weather by CustomWeather, © 2014

See weather overviewHow to use our weather pages